Flag for Micronesia Weather past 2 weeks in Kolonia, Ponape, Micronesia

Now
79 °F

Mostly cloudy.


Feels Like: 83 °F
Forecast: 77 / 88 °F
Wind: 5 mph from Northeast

Location: Pohnpei

Current Time: Dec 23, 2014 at 11:14:22 AM

Latest Report: Dec 23, 2014 at 10:52 AM


Visibility: 15 mi

Pressure: 29.81 "Hg

Humidity: 91%

Dew point: 76 °F

Location of KoloniaLocation

Historic Weather in Kolonia — Graph

°F

Kolonia temperature yesterday

Maximum temperature yesterday: 87 °F (at 2:51 PM)
Minimum temperature yesterday: 82 °F (at 10:54 PM)
Average temperature yesterday: 85 °F

Past Weeks' High & Low Weather Summary

 TemperatureHumidityPressure
High88 °F (Dec 14, 12:50 PM)98% (Dec 14, 12:52 AM)29.91 "Hg (Dec 14, 12:52 AM)
Low76 °F (Dec 11, 10:55 AM)63% (Dec 18, 4:53 PM)29.72 "Hg (Dec 23, 2:50 AM)
Average82 °F84%29.83 "Hg
* Reported Dec 8 8:53 AM — Dec 23 8:50 AM, Kolonia, Weather by CustomWeather, © 2014

Note: Actual official high and low records may vary slightly from our data, if they occured in-between our weather recording intervals... More about our weather records

Advertising

Kolonia weather history for previous 24 hours

 ConditionsComfort  
Time TempWeatherWind HumidityBarometerVisibility
8:50 AM
Dec 23
77 °FMostly cloudy.3 mph92%29.82 "Hg15 mi
7:56 AM78 °FThunderstorms. Mostly cloudy.12 mph91%29.79 "Hg2 mi
6:56 AM78 °FLots of rain. Overcast.8 mph97%29.78 "Hg2 mi
5:52 AM78 °FSprinkles. Mostly cloudy.8 mph95%29.75 "Hg5 mi
4:55 AM80 °FSprinkles. Mostly cloudy.8 mph94%29.72 "Hg8 mi
3:50 AM78 °FSprinkles. Mostly cloudy.12 mph95%29.73 "Hg7 mi
2:50 AM78 °FSprinkles. Mostly cloudy.9 mph95%29.72 "Hg7 mi
1:55 AM78 °FSprinkles. Mostly cloudy.8 mph97%29.76 "Hg7 mi
12:55 AM78 °FSprinkles. Mostly cloudy.9 mph94%29.78 "Hg10 mi
11:55 PM
Dec 22
83 °FMostly cloudy.7 mph84%29.78 "Hg15 mi
10:54 PM82 °FMostly cloudy.9 mph82%29.79 "Hg15 mi
9:53 PM83 °FOvercast.5 mph78%29.80 "Hg15 mi
8:55 PM83 °FMostly cloudy.5 mph82%29.79 "Hg15 mi
7:55 PM83 °FMostly cloudy.8 mph84%29.79 "Hg15 mi
6:55 PM84 °FOvercast.6 mph80%29.78 "Hg15 mi
5:52 PM84 °FCloudy.8 mph79%29.77 "Hg15 mi
4:55 PM84 °FCloudy.8 mph79%29.75 "Hg15 mi
3:50 PM86 °FBroken clouds.8 mph75%29.73 "Hg15 mi
2:51 PM87 °FBroken clouds.14 mph69%29.73 "Hg15 mi
1:53 PM86 °FBroken clouds.7 mph74%29.75 "Hg15 mi
12:51 PM87 °FMore clouds than sun.7 mph73%29.76 "Hg15 mi
11:53 AM87 °FMore clouds than sun.15 mph70%29.78 "Hg15 mi
Weather by CustomWeather, © 2014

See weather overviewHow to use our weather pages